Onweer radar Meer informatie blitzortung!


Regen radar Meer informatie rain snow radar


Bezoek onze andere website:

Template documentation
and downloads

And another site



15 daagse weersverwachting Leonding (AT)

  • Overzicht
  • Per uur
  • 15 dagen
  • Extra
  • Vergelijk
  • Kaarten
  • Dagkaart
  • Meer »
  • Info
  • Statistieken
  • Directe link
    Temp 6h Neerslag Wind  
 05:40     20:39    Daglengte: 14:59 Morgen
02:00
19°
 
1
08:00
19°
 
3
14:00
18°
5.1 mm
4
warningclass
20:00
17°
6.6 mm
4
 05:42     20:37    Daglengte: 14:55 Maandag 02 Aug
02:00
14°
 
3
08:00
15°
 
3
14:00
22°
 
4
20:00
20°
 
3
 05:43     20:36    Daglengte: 14:53 Dinsdag 03 Aug
02:00
14°
 
1
08:00
15°
 
1
14:00
24°
 
2
20:00
22°
 
1
Locatie info
Region: Oberösterreich
Latitude: 48.2792°N
Longitude: 14.2492°E
289 masl
Postcode: 4060
Temp/Neerslag /Baro Onweer/Dauwpunt
    Temp Baro 1h Neerslag Dauwpunt Wind UV Bewolking  
 05:40     20:39    Daglengte: 14:59 Morgen
00:00
20°
1010.3 hPa
14%
16.0°
1
Windvlaag: 0.4 m/s
77%
01:00
19°
1009.8 hPa
15%
16.0°
1
Windvlaag: 0.2 m/s
75%
02:00
19°
1009.4 hPa
82%
15.4°
1
Windvlaag: 0.6 m/s
80%
03:00
19°
1008.6 hPa
82%
14.5°
3
Windvlaag: -1.4 m/s
82%
04:00
18°
1007.9 hPa
81%
14.1°
4
Windvlaag: -1.8 m/s
85%
05:00
18°
1006.5 hPa
82%
14.0°
4
Windvlaag: -1.6 m/s
83%
06:00
18°
1005.3 hPa
82%
14.7°
5
Windvlaag: -0.7 m/s
78%
07:00
18°
1004.4 hPa
80%
15.0°
3
Windvlaag: -0.6 m/s
79%
08:00
19°
1004.0 hPa
79%
15.8°
3
Windvlaag: -1.2 m/s
86%
09:00
20°
1004.1 hPa
25%
15.6°
3
Windvlaag: -4.6 m/s
78%
10:00
20°
1004.3 hPa
73%
14.9°
3
Windvlaag: -4.3 m/s
84%
11:00
19°
1004.7 hPa 1.3 mm
81%
14.6°
3
Windvlaag: -2.2 m/s
86% warningclass
12:00
19°
1005.2 hPa
81%
14.6°
5
Windvlaag: -1.6 m/s
85%
13:00
18°
1006.2 hPa 1.9 mm
82%
14.0°
5
Windvlaag: 1.3 m/s
86% warningclass
14:00
18°
1007.7 hPa 1.9 mm
82%
10.9°
4
Windvlaag: 1.2 m/s
85% warningclass
15:00
18°
1008.5 hPa 1.6 mm
82%
9.2°
4
Windvlaag: 0.2 m/s
84%
16:00
17°
1009.4 hPa 2.6 mm
82%
10.4°
6
Windvlaag: 1.2 m/s
74%
17:00
17°
1009.9 hPa 2.4 mm
82%
10.1°
6
Windvlaag: 2.1 m/s
75%
18:00
17°
1010.2 hPa
82%
9.6°
5
Windvlaag: 1.8 m/s
74%
19:00
17°
1010.4 hPa
81%
9.3°
5
Windvlaag: 2.8 m/s
79%
20:00
17°
1010.7 hPa
29%
9.5°
4
Windvlaag: 2 m/s
65%
21:00
16°
1011.2 hPa
26%
10.5°
3
Windvlaag: 2.7 m/s
72%
22:00
16°
1011.7 hPa
29%
11.4°
3
Windvlaag: 1.8 m/s
83%
23:00
15°
1012.1 hPa
20%
12.3°
3
Windvlaag: 1.8 m/s
82%
 05:42     20:37    Daglengte: 14:55 Maandag 02 Aug
00:00
15°
1012.5 hPa
71%
12.9°
3
Windvlaag: 2.6 m/s
86%
01:00
14°
1012.8 hPa
80%
13.3°
3
Windvlaag: 3.8 m/s
86%
02:00
14°
1012.9 hPa
82%
13.1°
3
Windvlaag: 4.6 m/s
67%
03:00
14°
1013.0 hPa
40%
12.8°
3
Windvlaag: 4.4 m/s
72%
04:00
14°
1013.2 hPa
75%
13.0°
2
Windvlaag: 3.1 m/s
75%
05:00
14°
1013.4 hPa
62%
13.0°
2
Windvlaag: 2.7 m/s
65%
06:00
14°
1013.9 hPa
16%
13.2°
2
Windvlaag: 2.4 m/s
58%
07:00
14°
1014.2 hPa
19%
12.9°
2
Windvlaag: 2.3 m/s
48%
08:00
15°
1014.5 hPa
15%
12.7°
3
Windvlaag: 1.7 m/s
31%
09:00
16°
1014.7 hPa
14%
12.5°
3
Windvlaag: 1.5 m/s
66%
10:00
17°
1014.9 hPa
14%
11.8°
4
Windvlaag: 1.5 m/s
28%
11:00
19°
1014.9 hPa
14%
10.8°
4
Windvlaag: 1.4 m/s
14%
12:00
20°
1014.6 hPa
18%
9.5°
5
Windvlaag: 2 m/s
16%
13:00
21°
1014.3 hPa
20%
9.4°
4
Windvlaag: 1.7 m/s
26%
14:00
22°
1013.9 hPa
27%
10.4°
4
Windvlaag: 1.3 m/s
12%
15:00
22°
1013.5 hPa
74%
11.4°
4
Windvlaag: 1 m/s
12%
16:00
22°
1013.1 hPa
73%
11.3°
4
Windvlaag: 0.4 m/s
12%
17:00
22°
1013.2 hPa
37%
10.5°
4
Windvlaag: 0.2 m/s
15%
18:00
22°
1013.1 hPa
33%
10.5°
3
Windvlaag: -0.3 m/s
13%
19:00
21°
1013.5 hPa
27%
10.8°
3
Windvlaag: -0.5 m/s
15%
20:00
20°
1013.8 hPa
21%
12.7°
3
Windvlaag: -0.8 m/s
6%
21:00
18°
1014.6 hPa
21%
12.3°
2
Windvlaag: -0.6 m/s
6%
22:00
17°
1015.2 hPa
21%
11.8°
2
Windvlaag: -0.6 m/s
0%
23:00
16°
1015.5 hPa
21%
11.5°
2
Windvlaag: -0.3 m/s
7%
 05:43     20:36    Daglengte: 14:53 Dinsdag 03 Aug
00:00
15°
1015.8 hPa
21%
10.4°
1
Windvlaag: 0.1 m/s
8%
01:00
14°
1015.9 hPa
21%
11.0°
1
Windvlaag: 0.6 m/s
13%
02:00
14°
1015.8 hPa
21%
10.2°
1
Windvlaag: 0.6 m/s
44%
03:00
14°
1015.8 hPa
21%
9.8°
1
Windvlaag: 0.1 m/s
28%
04:00
13°
1015.8 hPa
21%
9.8°
1
Windvlaag: 0 m/s
66%
05:00
13°
1015.6 hPa
21%
9.6°
1
Windvlaag: 0.2 m/s
58%
06:00
13°
1015.9 hPa
21%
9.7°
1
Windvlaag: 0.5 m/s
45%
07:00
13°
1016.1 hPa
21%
8.9°
1
Windvlaag: -0.3 m/s
48%
08:00
15°
1016.1 hPa
21%
9.6°
1
Windvlaag: 0 m/s
31%
09:00
17°
1015.9 hPa
21%
10.8°
1
Windvlaag: 1.6 m/s
30%
10:00
19°
1015.5 hPa
21%
12.0°
2
Windvlaag: 2.2 m/s
27%
11:00
21°
1015.0 hPa
21%
13.2°
2
Windvlaag: 1.9 m/s
21%
12:00
22°
1014.4 hPa
21%
13.2°
2
Windvlaag: 1.9 m/s
11%
13:00
24°
1013.4 hPa
21%
13.0°
3
Windvlaag: 1.6 m/s
12%
14:00
24°
1012.6 hPa
21%
12.8°
2
Windvlaag: 0.9 m/s
21%
15:00
25°
1012.3 hPa
22%
12.9°
2
Windvlaag: 3.2 m/s
56%
16:00
25°
1011.8 hPa
22%
12.8°
2
Windvlaag: 3.3 m/s
74%
17:00
25°
1011.5 hPa
27%
14.3°
2
Windvlaag: 4.1 m/s
84%
18:00
24°
1011.3 hPa
23%
18.8°
3
Windvlaag: 7.1 m/s
74%
19:00
23°
1011.2 hPa
21%
15.4°
2
Windvlaag: 3.9 m/s
83%
20:00
22°
1011.3 hPa
23%
16.4°
1
Windvlaag: 3.8 m/s
81%
Temp/Neerslag /Baro Onweer/Dauwpunt
    Temp Baro Neerslag Dauwpunt Wind Bewolking  
 05:40     20:39    Daglengte: 14:59 Morgen
02:00
19°
1009.4 hPa   15.4°
1
80%
05:00
18°
1006.5 hPa   14.0°
4
83%
08:00
19°
1004.0 hPa   15.8°
3
86%
11:00
19°
1004.7 hPa 1.3 mm 14.6°
3
86% warningclass
14:00
18°
1007.7 hPa 3.8 mm 10.9°
4
85% warningclass
17:00
17°
1009.9 hPa 6.6 mm 10.1°
6
75%
20:00
17°
1010.7 hPa   9.5°
4
65%
23:00
15°
1012.1 hPa   12.3°
3
82%
 05:42     20:37    Daglengte: 14:55 Maandag 02 Aug
02:00
14°
1012.9 hPa   13.1°
3
67%
05:00
14°
1013.4 hPa   13.0°
2
65%
08:00
15°
1014.5 hPa   12.7°
3
31%
11:00
19°
1014.9 hPa   10.8°
4
14%
14:00
22°
1013.9 hPa   10.4°
4
12%
17:00
22°
1013.2 hPa   10.5°
4
15%
20:00
20°
1013.8 hPa   12.7°
3
6%
23:00
16°
1015.5 hPa   11.5°
2
7%
 05:43     20:36    Daglengte: 14:53 Dinsdag 03 Aug
02:00
14°
1015.8 hPa   10.2°
1
44%
05:00
13°
1015.6 hPa   9.6°
1
58%
08:00
15°
1016.1 hPa   9.6°
1
31%
11:00
21°
1015.0 hPa   13.2°
2
21%
14:00
24°
1012.6 hPa   12.8°
2
21%
17:00
25°
1011.5 hPa   14.3°
2
84%
20:00
22°
1011.3 hPa   16.4°
1
81%
23:00
15°
1015.4 hPa 32.4 mm 14.6°
7
1%
 05:44     20:34    Daglengte: 14:50 Woensdag 04 Aug
02:00
14°
1016.1 hPa 32.5 mm 12.8°
3
1%
05:00
12°
1015.4 hPa 32.5 mm 10.9°
0
0%
08:00
14°
1014.9 hPa 32.5 mm 12.6°
1
1%
11:00
19°
1013.8 hPa 32.5 mm 13.4°
2
1%
14:00
23°
1012.5 hPa 32.5 mm 13.5°
0
1%
17:00
20°
1012.2 hPa 32.5 mm 14.6°
3
1%
20:00
15°
1014.9 hPa 41.5 mm 14.9°
5
1%
23:00
14°
1016.6 hPa 53.2 mm 14.0°
2
1%
 05:46     20:33    Daglengte: 14:47 Donderdag 05 Aug
02:00
14°
1016.4 hPa 55.1 mm 13.9°
1
1%
05:00
14°
1015.4 hPa 58.2 mm 13.7°
3
1%
08:00
14°
1015.5 hPa 58.3 mm 13.5°
4
1%
11:00
17°
1014.9 hPa 58.7 mm 13.6°
4
1%
14:00
20°
1012.8 hPa 59.0 mm 12.7°
3
1%
17:00
21°
1011.1 hPa 59.1 mm 12.4°
3
1%
20:00
17°
1010.2 hPa 59.1 mm 12.6°
1
1%
23:00
14°
1010.7 hPa 59.1 mm 11.0°
1
1%
 05:47     20:31    Daglengte: 14:44 Vrijdag 06 Aug
02:00
13°
1010.5 hPa 59.1 mm 10.9°
1
1%
05:00
14°
1010.3 hPa 59.1 mm 11.4°
2
1%
08:00
14°
1011.0 hPa 59.1 mm 12.2°
2
1%
11:00
18°
1010.4 hPa 59.2 mm 12.6°
2
1%
14:00
21°
1009.3 hPa 59.7 mm 12.9°
6
1%
17:00
20°
1010.1 hPa 60.4 mm 14.6°
5
0%
20:00
16°
1011.4 hPa 61.4 mm 14.2°
3
0%
23:00
14°
1013.3 hPa 61.4 mm 12.7°
2
1%
 05:48     20:30    Daglengte: 14:42 Zaterdag 07 Aug
02:00
12°
1014.1 hPa 61.5 mm 11.3°
2
1%
05:00
11°
1014.6 hPa 61.5 mm 10.3°
1
0%
08:00
14°
1015.0 hPa 61.5 mm 11.9°
2
0%
11:00
19°
1014.6 hPa 61.5 mm 12.9°
2
0%
14:00
23°
1012.9 hPa 61.5 mm 12.9°
1
0%
17:00
24°
1012.4 hPa 61.5 mm 13.5°
1
0%
20:00
19°
1012.7 hPa 61.5 mm 14.5°
1
0%
23:00
16°
1014.3 hPa   13.1°
1
0%
 05:50     20:28    Daglengte: 14:38 Zondag 08 Aug
02:00
15°
1015.0 hPa 123.0 mm 12.1°
1
0%
08:00
17°
1014.5 hPa 123.0 mm 12.7°
2
0%
14:00
27°
1012.9 hPa 123.0 mm 16.8°
2
0%
20:00
23°
1013.5 hPa 123.0 mm 19.0°
2
0%
 05:51     20:26    Daglengte: 14:35 Maandag 09 Aug
02:00
19°
1017.5 hPa 123.8 mm 17.4°
6
0%
08:00
16°
1022.2 hPa 126.1 mm 14.5°
4
1%
14:00
19°
1023.7 hPa 133.4 mm 14.7°
4
1%
20:00
17°
1022.9 hPa 135.2 mm 13.9°
3
0%
 05:52     20:25    Daglengte: 14:33 Dinsdag 10 Aug
02:00
13°
1025.3 hPa 135.6 mm 11.7°
2
0%
08:00
15°
1025.2 hPa 135.6 mm 12.4°
2
0%
14:00
21°
1023.0 hPa 135.6 mm 11.8°
5
1%
20:00
19°
1020.1 hPa 1.8 mm 15.5°
1
44%
 05:54     20:23    Daglengte: 14:29 Woensdag 11 Aug
02:00
15°
1021.2 hPa 0.8 mm 13.3°
1
48%
08:00
17°
1020.7 hPa 0.2 mm 14.2°
1
46%
14:00
24°
1018.6 hPa 0.1 mm 14.8°
1
37%
20:00
19°
1018.8 hPa 1.4 mm 15.1°
1
49%
 05:55     20:21    Daglengte: 14:26 Donderdag 12 Aug
02:00
15°
1020.3 hPa 1.2 mm 13.1°
1
49%
08:00
16°
1020.2 hPa 1.5 mm 14.0°
1
51%
14:00
23°
1018.6 hPa 1.2 mm 15.0°
1
51%
20:00
19°
1018.9 hPa 1.5 mm 15.1°
0
48%
 05:57     20:20    Daglengte: 14:23 Vrijdag 13 Aug
02:00
15°
1020.1 hPa 0.6 mm 13.2°
0
52%
08:00
16°
1020.1 hPa 0.3 mm 13.8°
1
46%
14:00
23°
1018.7 hPa 0.5 mm 14.7°
1
50%
20:00
19°
1018.7 hPa   15.4°
1
50%
 05:58     20:18    Daglengte: 14:20 Zaterdag 14 Aug
02:00
15°
1019.8 hPa 0.8 mm 13.5°
1
50%
08:00
17°
1019.7 hPa 0.7 mm 14.4°
1
52%
14:00
23°
1018.1 hPa 0.7 mm 15.1°
2
53%
20:00
19°
1018.1 hPa 0.8 mm 15.1°
1
47%
 05:59     20:16    Daglengte: 14:17 Zondag 15 Aug
02:00
15°
1019.0 hPa 0.3 mm 13.3°
1
47%
08:00
17°
1018.5 hPa 0.4 mm 14.0°
1
50%
14:00
23°
1016.7 hPa 0.7 mm 14.9°
2
48%
20:00
19°
1016.7 hPa 1.3 mm 15.2°
1
43%
  CAPE Lifted Index Hail Supercell Tornado SRH 3km CL BTM PRES CL TOP PRES Swiss DWD icon SMHI TS
 05:40     20:39    Daglengte: 14:59 Morgen
00:00 240 J/kg -2.1 K 0 % 0 % 0 % 0 m²/s² 0 0 -0.54 3
01:00 222 J/kg -2.9 K 0 % 0 % 0 % 0 m²/s² 0 0 -1.22 3
02:00 104 J/kg -2.0 K 0 % 0 % 0 % 0 m²/s² 0 0 -0.77 80
03:00 0 J/kg -1.6 K 0 % 0 % 0 % 0 m²/s² 0 0 -1.39 80
04:00 0 J/kg -1.0 K 0 % 0 % 0 % 0 m²/s² 0 0 -0.4 3
05:00 0 J/kg -0.7 K 0 % 0 % 0 % 0 m²/s² 0 0 -0.61 61
06:00 0 J/kg -2.4 K 0 % 0 % 0 % 0 m²/s² 0 0 -2.04 63
07:00 0 J/kg -3.6 K 0 % 0 % 0 % 0 m²/s² 0 0 -3.33 61
08:00 114 J/kg -4.0 K 0 % 0 % 0 % 0 m²/s² 0 0 -3.34 3
09:00 625 J/kg -5.0 K 0 % 0 % 0 % 0 m²/s² 0 0 -3.62 3
10:00 1375 J/kg -5.9 K 0 % 0 % 0 % 0 m²/s² 0 0 -4.4 3
11:00 1259 J/kg -5.4 K 0 % 0 % 0 % 0 m²/s² 0 0 -3.21 3
12:00 883 J/kg -4.0 K 0 % 0 % 0 % 0 m²/s² 0 0 -3.13 3
13:00 913 J/kg -4.1 K 0 % 0 % 0 % 0 m²/s² 0 0 -3.71 95
14:00 551 J/kg -3.2 K 0 % 0 % 0 % 0 m²/s² 0 0 -2.39 80
15:00 324 J/kg -2.0 K 0 % 0 % 0 % 0 m²/s² 0 0 -1.28 61
16:00 570 J/kg -2.3 K 0 % 0 % 0 % 0 m²/s² 0 0 -1.94 61
17:00 334 J/kg -1.1 K 0 % 0 % 0 % 0 m²/s² 0 0 -0.89 61
18:00 106 J/kg 0.1 K 0 % 0 % 0 % 0 m²/s² 0 0 0.4 61
19:00 92 J/kg -0.2 K 0 % 0 % 0 % 0 m²/s² 0 0 0.76 3
20:00 43 J/kg 0.2 K 0 % 0 % 0 % 0 m²/s² 0 0 1.46 3
21:00 10 J/kg 0.6 K 0 % 0 % 0 % 0 m²/s² 0 0 1.98 3
22:00 1 J/kg 1.0 K 0 % 0 % 0 % 0 m²/s² 0 0 2.47 3
23:00 38 J/kg 0.3 K 0 % 0 % 0 % 0 m²/s² 0 0 1.38 3
 05:42     20:37    Daglengte: 14:55 Maandag 02 Aug
00:00 87 J/kg 0.1 K 0 % 0 % 0 % 0 m²/s² 0 0 0.43 3
01:00 54 J/kg 0.4 K 0 % 0 % 0 % 0 m²/s² 0 0 0.49 3
02:00 60 J/kg 0.8 K 0 % 0 % 0 % 0 m²/s² 0 0 1.07 61
03:00 0 J/kg 0.7 K 0 % 0 % 0 % 0 m²/s² 0 0 0.82 3
04:00 0 J/kg -0.3 K 0 % 0 % 0 % 0 m²/s² 0 0 -0.18 3
05:00 0 J/kg 0.0 K 0 % 0 % 0 % 0 m²/s² 0 0 0.93 3
06:00 0 J/kg 0.3 K 0 % 0 % 0 % 0 m²/s² 0 0 0.99 3
07:00 0 J/kg -0.3 K 0 % 0 % 0 % 0 m²/s² 0 0 1.26 3
08:00 13 J/kg -0.2 K 0 % 0 % 0 % 0 m²/s² 0 0 2.47 2
09:00 91 J/kg -0.2 K 0 % 0 % 0 % 0 m²/s² 0 0 2.71 3
10:00 310 J/kg -1.2 K 0 % 0 % 0 % 0 m²/s² 0 0 1.62 3
11:00 450 J/kg -2.0 K 0 % 0 % 0 % 0 m²/s² 0 0 0.91 2
12:00 460 J/kg -2.1 K 0 % 0 % 0 % 0 m²/s² 0 0 0.42 2
13:00 394 J/kg -2.0 K 0 % 0 % 0 % 0 m²/s² 0 0 0.46 2
14:00 383 J/kg -2.0 K 0 % 0 % 0 % 0 m²/s² 0 0 0.31 2
15:00 432 J/kg -2.3 K 0 % 0 % 0 % 0 m²/s² 0 0 -0.14 1
16:00 446 J/kg -2.5 K 0 % 0 % 0 % 0 m²/s² 0 0 0.05 2
17:00 459 J/kg -2.0 K 0 % 0 % 0 % 0 m²/s² 0 0 0.85 1
18:00 385 J/kg -1.5 K 0 % 0 % 0 % 0 m²/s² 0 0 1.41 1
19:00 413 J/kg -1.8 K 0 % 0 % 0 % 0 m²/s² 0 0 1.05 1
20:00 424 J/kg -1.7 K 0 % 0 % 0 % 0 m²/s² 0 0 0.85 1
21:00 303 J/kg -1.2 K 0 % 0 % 0 % 0 m²/s² 0 0 1.05 0
22:00 274 J/kg -1.4 K 0 % 0 % 0 % 0 m²/s² 0 0 1.45 0
23:00 143 J/kg -1.5 K 0 % 0 % 0 % 0 m²/s² 0 0 1.11 0
 05:43     20:36    Daglengte: 14:53 Dinsdag 03 Aug
00:00 7 J/kg -0.9 K 0 % 0 % 0 % 0 m²/s² 0 0 1.08 0
01:00 0 J/kg -1.4 K 0 % 0 % 0 % 0 m²/s² 0 0 -0.23 0
02:00 0 J/kg -1.6 K 0 % 0 % 0 % 0 m²/s² 0 0 -0.58 3
03:00 0 J/kg -1.6 K 0 % 0 % 0 % 0 m²/s² 0 0 0.32 45
04:00 0 J/kg -2.0 K 0 % 0 % 0 % 0 m²/s² 0 0 -0.02 45
05:00 0 J/kg -2.2 K 0 % 0 % 0 % 0 m²/s² 0 0 -0.01 45
06:00 0 J/kg -2.6 K 0 % 0 % 0 % 0 m²/s² 0 0 -0.47 45
07:00 0 J/kg -2.5 K 0 % 0 % 0 % 0 m²/s² 0 0 -0.52 45
08:00 0 J/kg -2.2 K 0 % 0 % 0 % 0 m²/s² 0 0 -0.28 45
09:00 0 J/kg -2.1 K 0 % 0 % 0 % 0 m²/s² 0 0 -0.18 0
10:00 198 J/kg -2.0 K 0 % 0 % 0 % 0 m²/s² 0 0 -0.08 1
11:00 479 J/kg -2.9 K 0 % 0 % 0 % 0 m²/s² 0 0 -1.16 0
12:00 597 J/kg -3.3 K 0 % 0 % 0 % 0 m²/s² 0 0 -1.68 0
13:00 570 J/kg -3.2 K 0 % 0 % 0 % 0 m²/s² 0 0 -1.7 0
14:00 616 J/kg -3.3 K 0 % 0 % 0 % 0 m²/s² 0 0 -1.5 1
15:00 674 J/kg -3.4 K 0 % 0 % 0 % 0 m²/s² 0 0 -1.54 3
16:00 679 J/kg -2.8 K 0 % 0 % 0 % 0 m²/s² 0 0 -1.57 3
17:00 837 J/kg -3.6 K 0 % 0 % 0 % 0 m²/s² 0 0 -3.42 3
18:00 393 J/kg -3.2 K 0 % 0 % 0 % 0 m²/s² 0 0 -2.3 3
19:00 132 J/kg -2.6 K 0 % 0 % 0 % 0 m²/s² 0 0 -0.77 3
20:00 36 J/kg -0.8 K 0 % 0 % 0 % 0 m²/s² 0 0 -0.2 3
Temp Baro Wind Neerslag
  EWN Forecast EWN WRFDA DWD ICON FMI HIRLAM MET Norway GFS
 05:40     20:39    Daglengte: 14:59 Morgen
02:00 19.1° 1009.4 hPa 1.4 m/s 0.0 mm 17.3° 1009.3 hPa 1.7 m/s 10.8 mm 18.5° 1010.2 hPa 0.6 m/s 0.9 mm 19.6° 1009.3 hPa 3.7 m/s 0.0 mm 17.2° 1008.7 hPa 1.2 m/s
05:00 18.4° 1006.5 hPa 4.2 m/s 0.0 mm 16.6° 1006.4 hPa 2.4 m/s 13.6 mm 18.6° 1006.9 hPa 1.0 m/s 1.3 mm 18.6° 1006.6 hPa 6.2 m/s 0.0 mm 16.9° 1007.4 hPa 2.3 m/s
08:00 18.9° 1004.0 hPa 2.7 m/s 0.0 mm 19.1° 1003.5 hPa 6.2 m/s 14.6 mm 18.9° 1005.1 hPa 2.0 m/s 4.0 mm 18.7° 1003.2 hPa 4.3 m/s 0.0 mm 15.5° 1006.6 hPa 3.8 m/s
11:00 19.3° 1004.7 hPa 3.4 m/s 1.3 mm 23.2° 1004.2 hPa 5.1 m/s 15.5 mm 18.5° 1004.8 hPa 3.0 m/s 0.2 mm 22.4° 1002.7 hPa 4.3 m/s 0.0 mm 15.4° 1008.9 hPa 3.6 m/s
14:00 18.2° 1007.7 hPa 4.2 m/s 3.8 mm 23.2° 1004.7 hPa 5.6 m/s 16.2 mm 17.6° 1007.4 hPa 3.5 m/s 2.9 mm 19.6° 1007.9 hPa 7.0 m/s 0.0 mm 15.9° 1010.4 hPa 2.9 m/s
17:00 17.2° 1009.9 hPa 5.7 m/s 6.6 mm 19.2° 1006.5 hPa 6.6 m/s 26.7 mm 16.1° 1010.4 hPa 5.7 m/s 2.5 mm 20.5° 1009.2 hPa 6.0 m/s 0.0 mm 15.0° 1010.8 hPa 4.4 m/s
20:00 16.6° 1010.7 hPa 3.9 m/s 0.0 mm 18.8° 1006.3 hPa 4.7 m/s 35.6 mm 15.9° 1012.0 hPa 4.0 m/s 0.7 mm 18.9° 1009.9 hPa 4.2 m/s 0.0 mm 14.1° 1011.5 hPa 4.1 m/s
23:00 15.4° 1012.1 hPa 2.8 m/s 0.0 mm 16.9° 1008.6 hPa 5.4 m/s 35.6 mm 14.7° 1013.5 hPa 3.4 m/s 0.0 mm 15.6° 1012.0 hPa 1.7 m/s 0.0 mm 13.7° 1013.2 hPa 2.4 m/s
 05:42     20:37    Daglengte: 14:55 Maandag 02 Aug
02:00 14.2° 1012.9 hPa 3.2 m/s 0.0 mm 15.3° 1010.7 hPa 5.6 m/s 36.9 mm 14.2° 1014.1 hPa 3.2 m/s 0.1 mm 13.3° 1012.1 hPa 1.0 m/s 0.0 mm 13.6° 1013.9 hPa 4.9 m/s
05:00 14.1° 1013.4 hPa 1.8 m/s 0.0 mm 14.3° 1011.4 hPa 2.2 m/s 43.3 mm 14.3° 1014.1 hPa 1.6 m/s 0.0 mm 13.0° 1012.6 hPa 1.1 m/s 0.0 mm 13.3° 1014.8 hPa 2.8 m/s
08:00 15.3° 1014.5 hPa 2.7 m/s 0.0 mm 15.9° 1013.2 hPa 5.4 m/s 46.0 mm 15.4° 1015.3 hPa 2.6 m/s 0.0 mm 15.4° 1013.0 hPa 1.2 m/s 0.0 mm 14.6° 1015.8 hPa 3.3 m/s
11:00 18.8° 1014.9 hPa 4.1 m/s 0.0 mm 19.9° 1013.8 hPa 5.1 m/s 46.0 mm 18.7° 1015.5 hPa 4.2 m/s 0.0 mm 21.0° 1013.5 hPa 4.1 m/s 0.0 mm 18.6° 1015.7 hPa 3.5 m/s
14:00 21.5° 1013.9 hPa 4.2 m/s 0.0 mm 22.7° 1013.2 hPa 5.7 m/s 46.0 mm 21.3° 1014.3 hPa 4.2 m/s 0.0 mm 22.9° 1013.2 hPa 4.9 m/s 0.0 mm 21.8° 1014.3 hPa 3.8 m/s
17:00 22.0° 1013.2 hPa 3.7 m/s 0.0 mm 23.3° 1012.6 hPa 4.6 m/s 46.0 mm 21.7° 1014.1 hPa 3.8 m/s 0.0 mm 22.2° 1014.1 hPa 3.2 m/s
20:00 19.6° 1013.8 hPa 2.5 m/s 0.0 mm 20.5° 1012.7 hPa 2.9 m/s 46.0 mm 19.6° 1014.7 hPa 2.5 m/s 0.0 mm 17.8° 1014.7 hPa 1.3 m/s
23:00 15.7° 1015.5 hPa 1.5 m/s 0.0 mm 16.7° 1014.9 hPa 3.0 m/s 46.0 mm 15.6° 1016.3 hPa 1.0 m/s 0.0 mm 14.0° 1016.8 hPa 0.9 m/s
 05:43     20:36    Daglengte: 14:53 Dinsdag 03 Aug
02:00 14.0° 1015.8 hPa 0.9 m/s 0.0 mm 15.3° 1015.0 hPa 1.2 m/s 46.0 mm 13.7° 1016.7 hPa 0.5 m/s 0.0 mm 12.7° 1017.6 hPa 0.5 m/s
05:00 12.9° 1015.6 hPa 1.0 m/s 0.0 mm 13.3° 1015.1 hPa 1.5 m/s 46.1 mm 12.0° 1017.0 hPa 0.4 m/s 0.0 mm 11.7° 1017.5 hPa 0.5 m/s
08:00 15.2° 1016.1 hPa 0.8 m/s 0.0 mm 16.5° 1015.9 hPa 2.0 m/s 46.1 mm 14.6° 1017.2 hPa 0.6 m/s 0.0 mm 15.1° 1017.5 hPa 1.0 m/s
11:00 20.9° 1015.0 hPa 2.1 m/s 0.0 mm 21.5° 1015.0 hPa 1.1 m/s 46.1 mm 20.9° 1015.7 hPa 2.2 m/s 0.0 mm 20.7° 1016.0 hPa 1.7 m/s
14:00 24.5° 1012.6 hPa 2.4 m/s 0.0 mm 24.6° 1012.8 hPa 0.7 m/s 46.1 mm 24.9° 1013.5 hPa 2.3 m/s 0.0 mm 24.0° 1013.2 hPa 2.2 m/s
17:00 25.1° 1011.5 hPa 2.4 m/s 0.0 mm 24.7° 1011.4 hPa 2.9 m/s 46.5 mm 25.2° 1011.5 hPa 2.2 m/s 0.0 mm 25.1° 1010.8 hPa 2.2 m/s
20:00 22.0° 1011.3 hPa 0.9 m/s 0.0 mm 20.7° 1011.1 hPa 1.3 m/s 50.8 mm 22.3° 1011.4 hPa 0.8 m/s 0.0 mm 19.8° 1009.8 hPa 2.4 m/s
23:00 15.2° 1015.4 hPa 6.6 m/s 32.4 mm 15.2° 1015.4 hPa 6.6 m/s 32.4 mm
 05:44     20:34    Daglengte: 14:50 Woensdag 04 Aug
02:00 14.1° 1016.1 hPa 2.5 m/s 32.5 mm 14.1° 1016.1 hPa 2.5 m/s 32.5 mm
05:00 11.7° 1015.4 hPa 0.4 m/s 32.5 mm 11.7° 1015.4 hPa 0.4 m/s 32.5 mm
08:00 14.2° 1014.9 hPa 1.4 m/s 32.5 mm 14.2° 1014.9 hPa 1.4 m/s 32.5 mm
11:00 18.7° 1013.8 hPa 2.1 m/s 32.5 mm 18.7° 1013.8 hPa 2.1 m/s 32.5 mm
14:00 23.3° 1012.5 hPa 0.2 m/s 32.5 mm 23.3° 1012.5 hPa 0.2 m/s 32.5 mm
17:00 20.4° 1012.2 hPa 3.5 m/s 32.5 mm 20.4° 1012.2 hPa 3.5 m/s 32.5 mm
20:00 15.4° 1014.9 hPa 4.7 m/s 41.5 mm 15.4° 1014.9 hPa 4.7 m/s 41.5 mm
23:00 14.2° 1016.6 hPa 1.8 m/s 53.2 mm 14.2° 1016.6 hPa 1.8 m/s 53.2 mm
 05:46     20:33    Daglengte: 14:47 Donderdag 05 Aug
02:00 14.2° 1016.4 hPa 1.4 m/s 55.1 mm 14.2° 1016.4 hPa 1.4 m/s 55.1 mm
05:00 14.4° 1015.4 hPa 3.3 m/s 58.2 mm 14.4° 1015.4 hPa 3.3 m/s 58.2 mm
08:00 14.5° 1015.5 hPa 3.6 m/s 58.3 mm 14.5° 1015.5 hPa 3.6 m/s 58.3 mm
11:00 17.1° 1014.9 hPa 3.9 m/s 58.7 mm 17.1° 1014.9 hPa 3.9 m/s 58.7 mm
14:00 20.1° 1012.8 hPa 3.3 m/s 59.0 mm 20.1° 1012.8 hPa 3.3 m/s 59.0 mm
17:00 20.8° 1011.1 hPa 3.0 m/s 59.1 mm 20.8° 1011.1 hPa 3.0 m/s 59.1 mm
20:00 17.0° 1010.2 hPa 1.3 m/s 59.1 mm 17.0° 1010.2 hPa 1.3 m/s 59.1 mm
23:00 14.4° 1010.7 hPa 1.2 m/s 59.1 mm 14.4° 1010.7 hPa 1.2 m/s 59.1 mm
 05:47     20:31    Daglengte: 14:44 Vrijdag 06 Aug
02:00 13.4° 1010.5 hPa 1.4 m/s 59.1 mm 13.4° 1010.5 hPa 1.4 m/s 59.1 mm
05:00 13.9° 1010.3 hPa 1.6 m/s 59.1 mm 13.9° 1010.3 hPa 1.6 m/s 59.1 mm
08:00 14.0° 1011.0 hPa 2.1 m/s 59.1 mm 14.0° 1011.0 hPa 2.1 m/s 59.1 mm
11:00 18.0° 1010.4 hPa 2.0 m/s 59.2 mm 18.0° 1010.4 hPa 2.0 m/s 59.2 mm
14:00 21.1° 1009.3 hPa 6.1 m/s 59.7 mm 21.1° 1009.3 hPa 6.1 m/s 59.7 mm
17:00 19.9° 1010.1 hPa 5.2 m/s 60.4 mm 19.9° 1010.1 hPa 5.2 m/s 60.4 mm
20:00 16.0° 1011.4 hPa 3.2 m/s 61.4 mm 16.0° 1011.4 hPa 3.2 m/s 61.4 mm
23:00 13.7° 1013.3 hPa 2.3 m/s 61.4 mm 13.7° 1013.3 hPa 2.3 m/s 61.4 mm
 05:48     20:30    Daglengte: 14:42 Zaterdag 07 Aug
02:00 12.1° 1014.1 hPa 2.2 m/s 61.5 mm 12.1° 1014.1 hPa 2.2 m/s 61.5 mm
05:00 11.3° 1014.6 hPa 1.5 m/s 61.5 mm 11.3° 1014.6 hPa 1.5 m/s 61.5 mm
08:00 14.3° 1015.0 hPa 1.7 m/s 61.5 mm 14.3° 1015.0 hPa 1.7 m/s 61.5 mm
11:00 19.3° 1014.6 hPa 2.5 m/s 61.5 mm 19.3° 1014.6 hPa 2.5 m/s 61.5 mm
14:00 22.9° 1012.9 hPa 1.1 m/s 61.5 mm 22.9° 1012.9 hPa 1.1 m/s 61.5 mm
17:00 23.8° 1012.4 hPa 0.5 m/s 61.5 mm 23.8° 1012.4 hPa 0.5 m/s 61.5 mm
20:00 19.2° 1012.7 hPa 1.0 m/s 61.5 mm 19.2° 1012.7 hPa 1.0 m/s 61.5 mm
23:00 16.0° 1014.3 hPa 0.8 m/s 61.5 mm 16.0° 1014.3 hPa 0.8 m/s 61.5 mm
 05:50     20:28    Daglengte: 14:38 Zondag 08 Aug
02:00 14.7° 1015.0 hPa 1.2 m/s 61.5 mm 14.7° 1015.0 hPa 1.2 m/s 61.5 mm
08:00 16.9° 1014.5 hPa 2.0 m/s 61.5 mm 16.9° 1014.5 hPa 2.0 m/s 61.5 mm
14:00 27.5° 1012.9 hPa 2.3 m/s 61.5 mm 27.5° 1012.9 hPa 2.3 m/s 61.5 mm
20:00 23.0° 1013.5 hPa 2.0 m/s 61.5 mm 23.0° 1013.5 hPa 2.0 m/s 61.5 mm
 05:51     20:26    Daglengte: 14:35 Maandag 09 Aug
02:00 18.6° 1017.5 hPa 5.7 m/s 62.1 mm 18.6° 1017.5 hPa 5.7 m/s 62.1 mm
08:00 16.0° 1022.2 hPa 4.4 m/s 63.2 mm 16.0° 1022.2 hPa 4.4 m/s 63.2 mm
14:00 19.1° 1023.7 hPa 3.9 m/s 67.3 mm 19.1° 1023.7 hPa 3.9 m/s 67.3 mm
20:00 17.4° 1022.9 hPa 3.1 m/s 67.8 mm 17.4° 1022.9 hPa 3.1 m/s 67.8 mm
 05:52     20:25    Daglengte: 14:33 Dinsdag 10 Aug
02:00 12.7° 1025.3 hPa 1.9 m/s 67.8 mm 12.7° 1025.3 hPa 1.9 m/s 67.8 mm
08:00 14.5° 1025.2 hPa 2.0 m/s 67.8 mm 14.5° 1025.2 hPa 2.0 m/s 67.8 mm
14:00 21.5° 1023.0 hPa 4.8 m/s 67.9 mm 21.5° 1023.0 hPa 4.8 m/s 67.9 mm
20:00 19.0° 1020.1 hPa 1.1 m/s 1.8 mm
 05:54     20:23    Daglengte: 14:29 Woensdag 11 Aug
02:00 15.3° 1021.2 hPa 0.7 m/s 0.8 mm
08:00 16.7° 1020.7 hPa 0.7 m/s 0.2 mm
14:00 23.8° 1018.6 hPa 1.2 m/s 0.1 mm
20:00 18.8° 1018.8 hPa 1.0 m/s 1.4 mm
 05:55     20:21    Daglengte: 14:26 Donderdag 12 Aug
02:00 14.9° 1020.3 hPa 0.7 m/s 1.2 mm
08:00 16.3° 1020.2 hPa 0.5 m/s 1.5 mm
14:00 23.1° 1018.6 hPa 0.7 m/s 1.2 mm
20:00 19.0° 1018.9 hPa 0.4 m/s 1.5 mm
 05:57     20:20    Daglengte: 14:23 Vrijdag 13 Aug
02:00 15.0° 1020.1 hPa 0.5 m/s 0.6 mm
08:00 16.3° 1020.1 hPa 0.9 m/s 0.3 mm
14:00 23.4° 1018.7 hPa 0.8 m/s 0.5 mm
20:00 19.0° 1018.7 hPa 0.8 m/s 0.0 mm
 05:58     20:18    Daglengte: 14:20 Zaterdag 14 Aug
02:00 15.5° 1019.8 hPa 1.1 m/s 0.8 mm
08:00 16.7° 1019.7 hPa 1.4 m/s 0.7 mm
14:00 23.2° 1018.1 hPa 2.0 m/s 0.7 mm
20:00 18.7° 1018.1 hPa 1.0 m/s 0.8 mm
 05:59     20:16    Daglengte: 14:17 Zondag 15 Aug
02:00 15.3° 1019.0 hPa 0.9 m/s 0.3 mm
08:00 16.7° 1018.5 hPa 1.0 m/s 0.4 mm
14:00 23.5° 1016.7 hPa 2.0 m/s 0.7 mm
20:00 18.8° 1016.7 hPa 1.3 m/s 1.3 mm
FMI Hirlam - 7.5 km EWN WRFDA - 12 km DWD ICON - 7 km GFS - 25 km Basiskaart






























































Updatetijd (Europe/Amsterdam) Resolutie Lengte Stap
FMI Hirlam 19:00, 01:00, 07:00, 13:00 7.5 km 49h 1h
EWN WRFDA 22:15, 04:15, 10:15, 16:15 12 km 73h 1h
DWD ICON 18:15, 00:15, 06:15, 12:15 7 km 75h 1h
GFS 20:15, 02:15, 08:15, 14:15 25 km 237h 3h
30+ mm
25-30 mm
20-25 mm
15-20 mm
10-15 mm
6-10 mm
4-6 mm
2-4 mm
1-2 mm
0.5-1 mm
0.2-0.5 mm
0.1-0.2 mm
30+ mm
25-30 mm
20-25 mm
15-20 mm
10-15 mm
6-10 mm
4-6 mm
2-4 mm
1-2 mm
0.5-1 mm
0.2-0.5 mm
0.1-0.2 mm
Sneeuwval
Natte sneeuw
Hagel
Vorst
30+ mm
25-30 mm
20-25 mm
15-20 mm
10-15 mm
6-10 mm
4-6 mm
2-4 mm
1-2 mm
0.5-1 mm
0.2-0.5 mm
0.1-0.2 mm
Sneeuwval
Natte sneeuw
Hagel
Vorst
Onweer
50 mm
40 mm
30 mm
26 mm
22 mm
18 mm
14 mm
10 mm
9 mm
8 mm
7 mm
6 mm
5 mm
4.5 mm
4 mm
3.5 mm
3 mm
2.5 mm
2 mm
1.5 mm
1 mm
0.8 mm
0.6 mm
0.4 mm
0.2 mm
0.05 mm
35°
30°
25°
20°
15°
10°
-5°
-10°
-15°
-20°
-25°
-30°
-35°
33> m/s
29 m/s
25 m/s
21 m/s
17 m/s
14 m/s
11 m/s
8 m/s
5 m/s
3 m/s
0 m/s
2600 J/kg
2400 J/kg
2200 J/kg
2000 J/kg
1800 J/kg
1600 J/kg
1400 J/kg
1200 J/kg
1000 J/kg
800 J/kg
600 J/kg
400 J/kg
200 J/kg
70 dBZ
65 dBZ
60 dBZ
55 dBZ
50 dBZ
45 dBZ
40 dBZ
35 dBZ
30 dBZ
25 dBZ
20 dBZ
15 dBZ
10 dBZ
5 dBZ
-1 K
-2 K
-3 K
-4 K
-5 K
-6 K
-7 K
-8 K
-9 K
950 m²/s²
900 m²/s²
850 m²/s²
800 m²/s²
750 m²/s²
700 m²/s²
650 m²/s²
600 m²/s²
550 m²/s²
500 m²/s²
450 m²/s²
400 m²/s²
350 m²/s²
300 m²/s²
250 m²/s²
200 m²/s²
150 m²/s²
100 m²/s²
46 m/s
44 m/s
42 m/s
40 m/s
38 m/s
36 m/s
34 m/s
32 m/s
30 m/s
28 m/s
26 m/s
24 m/s
22 m/s
20 m/s
16 m/s
12 m/s
8 m/s
4 m/s
30 m/s
28 m/s
26 m/s
24 m/s
22 m/s
20 m/s
18 m/s
16 m/s
14 m/s
12 m/s
10 m/s
8 m/s
6 m/s
4 m/s
2 m/s
3.0
2.8
2.6
2.4
2.2
2.0
1.8
1.6
1.4
1.2
1.0
0.8
0.6
0.4
0.2
15
14
13
12
11
10
9
8
7
6
5
4
3
2
1
90%
80%
70%
60%
50%
40%
30%
20%
10%
42
40
38
36
34
32
30
28
26
24
22
20
18
16
14
12
90+ cm
80-90 cm
70-80 cm
60-70 cm
50-60 cm
40-50 cm
30-40 cm
20-30 cm
10-20 cm
1-10 cm
Sneeuwval
Natte sneeuw
Regen
>120 mm
115 mm
110 mm
105 mm
100 mm
95 mm
90 mm
85 mm
80 mm
75 mm
70 mm
65 mm
60 mm
55 mm
50 mm
45 mm
45 mm
40 mm
35 mm
30 mm
25 mm
20 mm
15 mm
10 mm
5 mm
0.1 mm
960 hPa
880 hPa
800 hPa
720 hPa
640 hPa
560 hPa
584 gpdm
568 gpdm
552 gpdm
536 gpdm
520 gpdm
504 gpdm
488 gpdm
Extreem zwaar Noodweer Kans op onweer
15% 15% 5% 50% 15%

Dag




Kaart






35°
30°
25°
20°
15°
10°
-5°
-10°
-15°
-20°
-25°
-30°
-35°
33> m/s
29 m/s
25 m/s
21 m/s
17 m/s
14 m/s
11 m/s
8 m/s
5 m/s
3 m/s
0 m/s
Extreem zwaar Noodweer Kans op onweer
15% 15% 5% 50% 15%
>120 mm
115 mm
110 mm
105 mm
100 mm
95 mm
90 mm
85 mm
80 mm
75 mm
70 mm
65 mm
60 mm
55 mm
50 mm
45 mm
45 mm
40 mm